Miles City, MT

5:08 AM MDT on June 29, 2017 (GMT -0600)
Wiley

Weather History for KMLS - December, 2013

Change the Weather History Date:

Wednesday, December 4, 2013

  Actual Average Record
Temperature  
Mean Temperature -2 °F 23 °F  
Max Temperature 7 °F 34 °F 67 °F (1979)
Min Temperature -11 °F 13 °F -21 °F (1972)
Degree Days  
Heating Degree Days 67 42  
Month to date heating degree days 173 166  
Since 1 July heating degree days 1880 1965  
Cooling Degree Days 0 0  
Month to date cooling degree days 0 0  
Year to date cooling degree days 877 730  
Moisture  
Dew Point -4 °F    
Average Humidity 79    
Maximum Humidity 86    
Minimum Humidity 71    
Precipitation  
Precipitation T in 0.00 in 0.11 in (1948)
Month to date precipitation 0.16 0.03  
Year to date precipitation 16.66 12.18  
Sea Level Pressure  
Sea Level Pressure 30.22 in    
Wind  
Wind Speed 15 mph (NW)    
Max Wind Speed 24 mph    
Max Gust Speed 29 mph    
Visibility 5 miles    
Events Snow    
T = Trace of Precipitation, MM = Missing Value Source: NWS Daily Summary

Daily Weather History Graph

Daily Weather History Graph

Search for Another Location

Airport or City:

Trip Planner

Search our weather history database for the weather conditions in past years. The results will help you decide how hot, cold, wet, or windy it might be!

Date:

Astronomy

Dec. 04, 2013 Rise Set
Actual Time 7:30 AM MST 4:17 PM MST
Civil Twilight 6:55 AM MST 4:51 PM MST
Nautical Twilight 6:17 AM MST 5:29 PM MST
Astronomical Twilight 5:41 AM MST 6:06 PM MST
Moon 8:58 AM MST (12/4) 6:33 PM MST (12/4)
Length of Visible Light 9h 55m
Length of Day
8h 47m
Waxing Crescent, 5% of the Moon is Illuminated
Dec 4
Waxing Crescent
Dec 9
First Quarter
Dec 17
Full
Dec 25
Last Quarter
Jan 1
New

Hourly Weather History & Observations

Time (MST) Temp. Windchill Dew Point Humidity Pressure Visibility Wind Dir Wind Speed Gust Speed Precip Events Conditions
12:05 AM 7.0 °F -13.6 °F 1.9 °F 80% 30.09 in 2.0 mi NW 21.9 mph - 0.00 in Snow Light Snow
12:24 AM 6.1 °F -14.3 °F 1.0 °F 80% 30.09 in 5.0 mi NW 20.7 mph - 0.00 in   Overcast
12:34 AM 6.1 °F -13.8 °F 1.0 °F 80% 30.09 in 4.0 mi NNW 19.6 mph - 0.00 in Snow Light Snow
12:37 AM 6.1 °F -14.8 °F 1.0 °F 80% 30.09 in 2.5 mi NNW 21.9 mph - 0.00 in Snow Light Snow
12:42 AM 6.1 °F -14.8 °F 1.0 °F 80% 30.09 in 1.8 mi NW 21.9 mph - 0.00 in Snow Light Snow
12:53 AM 6.1 °F -13.3 °F 1.0 °F 80% 30.25 in 2.0 mi NW 18.4 mph - 0.00 in Snow Light Snow
1:53 AM 5.0 °F -15.2 °F -0.0 °F 80% 30.26 in 2.5 mi NW 19.6 mph - 0.00 in Snow Light Snow
2:04 AM 5.0 °F -14.2 °F -0.0 °F 80% 30.11 in 3.0 mi NW 17.3 mph - 0.00 in   Overcast
2:23 AM 5.0 °F -13.0 °F -0.0 °F 80% 30.11 in 2.5 mi NW 15.0 mph - 0.00 in Snow Light Snow
2:35 AM 3.9 °F -13.7 °F -0.0 °F 84% 30.12 in 2.0 mi NW 13.8 mph - 0.00 in Snow Light Snow
2:51 AM 3.2 °F -14.6 °F -0.4 °F 85% 30.11 in 3.0 mi NW 13.8 mph - 0.00 in   Overcast
2:53 AM 3.9 °F -13.7 °F -0.0 °F 84% 30.27 in 3.0 mi NW 13.8 mph - 0.00 in   Overcast
3:05 AM 3.9 °F -15.6 °F -0.0 °F 84% 30.11 in 3.0 mi NW 17.3 mph - 0.00 in   Overcast
3:16 AM 3.9 °F -15.6 °F -0.0 °F 84% 30.11 in 2.0 mi NW 17.3 mph - 0.00 in Snow Light Snow
3:40 AM 3.9 °F -15.6 °F -0.0 °F 84% 30.10 in 2.0 mi NW 17.3 mph - 0.00 in Snow Light Snow
3:53 AM 3.9 °F -15.6 °F -0.0 °F 84% 30.26 in 3.0 mi NW 17.3 mph - 0.00 in Snow Light Snow
4:10 AM 3.9 °F -15.6 °F -0.9 °F 80% 30.10 in 2.0 mi NW 17.3 mph - 0.00 in Snow Light Snow
4:53 AM 3.9 °F -17.1 °F -0.9 °F 80% 30.27 in 2.5 mi NW 20.7 mph - 0.00 in Snow Light Snow
5:31 AM 3.0 °F -17.3 °F -0.9 °F 84% 30.11 in 3.0 mi NW 18.4 mph - 0.00 in   Overcast
5:49 AM 3.2 °F -17.1 °F -0.4 °F 85% 30.10 in 1.8 mi NW 18.4 mph - 0.00 in Snow Light Snow
5:50 AM 3.0 °F -17.3 °F -0.9 °F 84% 30.27 in 1.8 mi NW 18.4 mph - 0.00 in Snow Light Snow
5:58 AM 3.0 °F -16.7 °F -0.9 °F 84% 30.11 in 1.2 mi NW 17.3 mph - 0.00 in Snow Light Snow
6:10 AM 3.0 °F -16.7 °F -2.0 °F 80% 30.11 in 3.0 mi NW 17.3 mph - 0.00 in Snow Light Snow
6:36 AM 3.0 °F -15.5 °F -2.0 °F 80% 30.13 in 7.0 mi NW 15.0 mph - 0.00 in   Overcast
6:53 AM 3.0 °F -15.5 °F -2.0 °F 80% 30.30 in 10.0 mi NW 15.0 mph - 0.00 in   Overcast
7:19 AM 3.0 °F -15.5 °F -2.0 °F 80% 30.14 in 2.5 mi NW 15.0 mph - 0.00 in Snow Light Snow
7:31 AM 3.0 °F -16.7 °F -2.0 °F 80% 30.14 in 3.0 mi NW 17.3 mph - 0.00 in Snow Light Snow
7:53 AM 3.0 °F -15.5 °F -0.9 °F 84% 30.32 in 3.0 mi NW 15.0 mph - 0.00 in Snow Light Snow
8:05 AM 3.0 °F -16.7 °F -0.9 °F 84% 30.15 in 1.8 mi NW 17.3 mph - 0.00 in Snow Light Snow
8:13 AM 3.0 °F -17.3 °F -2.0 °F 80% 30.15 in 3.0 mi NW 18.4 mph - 0.00 in Snow Light Snow
8:30 AM 3.0 °F -14.8 °F -2.0 °F 80% 30.16 in 2.5 mi NW 13.8 mph - 0.00 in Snow Light Snow
8:41 AM 3.0 °F -16.7 °F -2.0 °F 80% 30.15 in 1.8 mi NW 17.3 mph - 0.00 in Snow Light Snow
8:49 AM 3.2 °F -17.6 °F -2.2 °F 78% 30.16 in 2.5 mi NW 19.6 mph - 0.00 in Snow Light Snow
8:53 AM 3.0 °F -16.1 °F -2.0 °F 80% 30.34 in 3.0 mi NW 16.1 mph - 0.00 in Snow Light Snow
9:03 AM 3.0 °F -16.7 °F -2.0 °F 80% 30.16 in 2.5 mi NW 17.3 mph - 0.00 in Snow Light Snow
9:21 AM 3.0 °F -17.3 °F -2.0 °F 80% 30.16 in 1.8 mi NW 18.4 mph - 0.00 in Snow Light Snow
9:43 AM 3.0 °F -17.3 °F -2.9 °F 76% 30.17 in 2.5 mi NW 18.4 mph - 0.00 in Snow Light Snow
9:51 AM 3.2 °F -16.5 °F -2.2 °F 78% 30.17 in 4.0 mi NW 17.3 mph - 0.00 in Snow Light Snow
9:53 AM 3.0 °F -16.7 °F -2.9 °F 76% 30.35 in 4.0 mi NW 17.3 mph - 0.00 in Snow Light Snow
10:00 AM 3.0 °F -16.1 °F -2.9 °F 76% 30.18 in 1.8 mi NW 16.1 mph - 0.00 in Snow Light Snow
10:10 AM 3.0 °F -16.7 °F -2.9 °F 76% 30.18 in 3.0 mi NW 17.3 mph - 0.00 in Snow Light Snow
10:53 AM 3.9 °F -16.6 °F -2.9 °F 73% 30.34 in 4.0 mi NW 19.6 mph - 0.00 in   Overcast
11:04 AM 3.0 °F -17.8 °F -2.9 °F 76% 30.16 in 2.0 mi NW 19.6 mph - 0.00 in Snow Light Snow
11:14 AM 3.0 °F -18.8 °F -2.9 °F 76% 30.16 in 3.0 mi NW 21.9 mph - 0.00 in Snow Blowing Snow
11:53 AM 3.0 °F -17.8 °F -2.9 °F 76% 30.33 in 2.0 mi NW 19.6 mph - 0.00 in Snow Light Snow
12:01 PM 3.0 °F -18.3 °F -2.9 °F 76% 30.15 in 1.5 mi NW 20.7 mph - 0.00 in Snow Light Snow
12:31 PM 3.0 °F -17.8 °F -4.0 °F 73% 30.15 in 3.0 mi NW 19.6 mph - 0.00 in Snow Light Snow
12:48 PM 3.2 °F -18.6 °F -4.0 °F 72% 30.15 in 2.5 mi NW 21.9 mph - 0.00 in Snow Light Snow
12:53 PM 3.0 °F -18.3 °F -4.0 °F 73% 30.32 in 4.0 mi NW 20.7 mph - 0.00 in   Overcast
1:10 PM 3.0 °F -17.3 °F -4.0 °F 73% 30.15 in 8.0 mi NW 18.4 mph - 0.00 in   Overcast
1:37 PM 1.9 °F -19.8 °F -4.0 °F 76% 30.15 in 2.5 mi NW 20.7 mph - 0.00 in   Overcast
1:53 PM 1.9 °F -18.7 °F -5.1 °F 72% 30.33 in 6.0 mi NW 18.4 mph - 0.00 in   Mostly Cloudy
2:53 PM 1.9 °F -16.9 °F -5.1 °F 72% 30.35 in 10.0 mi NW 15.0 mph - 0.00 in   Partly Cloudy
3:53 PM -0.0 °F -19.4 °F -6.0 °F 76% 30.36 in 10.0 mi NW 15.0 mph - 0.00 in   Clear
4:53 PM -0.9 °F -19.9 °F -8.0 °F 72% 30.38 in 10.0 mi NNW 13.8 mph - N/A   Clear
5:53 PM -2.9 °F -24.4 °F -9.0 °F 75% 30.39 in 10.0 mi NW 17.3 mph - N/A   Mostly Cloudy
6:02 PM -2.0 °F -22.6 °F -8.0 °F 76% 30.20 in 10.0 mi NW 16.1 mph - N/A   Mostly Cloudy
6:17 PM -5.1 °F -22.5 °F -9.9 °F 80% 30.20 in 10.0 mi WNW 10.4 mph - N/A   Mostly Cloudy
6:53 PM -7.1 °F -21.4 °F -11.0 °F 83% 30.42 in 10.0 mi WNW 6.9 mph - N/A   Partly Cloudy
7:35 PM -9.0 °F -27.4 °F -13.0 °F 83% 30.23 in 9.0 mi WNW 10.4 mph - N/A   Mostly Cloudy
7:53 PM -8.0 °F -23.9 °F -11.9 °F 83% 30.43 in 8.0 mi WNW 8.1 mph - N/A   Overcast
8:06 PM -9.0 °F -25.2 °F -13.0 °F 83% 30.23 in 8.0 mi WNW 8.1 mph - N/A   Overcast
8:18 PM -8.0 °F -21.0 °F -11.9 °F 83% 30.23 in 4.0 mi WNW 5.8 mph - 0.00 in Snow Light Snow
8:53 PM -7.1 °F -23.9 °F -11.0 °F 83% 30.43 in 9.0 mi West 9.2 mph - 0.00 in   Mostly Cloudy
9:50 PM -5.8 °F -24.4 °F -9.4 °F 84% 30.23 in 10.0 mi WNW 11.5 mph - 0.00 in   Overcast
9:53 PM -5.1 °F -22.5 °F -9.9 °F 80% 30.43 in 10.0 mi WNW 10.4 mph - 0.00 in   Overcast
10:09 PM -6.0 °F -21.5 °F -9.9 °F 83% 30.23 in 5.0 mi NW 8.1 mph - 0.00 in Snow Light Snow
10:46 PM -7.1 °F -19.9 °F -11.9 °F 79% 30.23 in 10.0 mi WNW 5.8 mph - 0.00 in   Mostly Cloudy
10:53 PM -7.1 °F -23.9 °F -11.9 °F 79% 30.44 in 10.0 mi West 9.2 mph - 0.00 in   Scattered Clouds
11:53 PM -11.0 °F -30.9 °F -15.0 °F 83% 30.45 in 10.0 mi West 11.5 mph - N/A   Clear